Regional Weather Roundup
Issued by NWS

Home | Current Version | Previous Version | Text Only | Print | Product List | Glossary Off
Versions: 1 2 3 4 5 6 7 8 9 10 11 12 13 14 15 16 17 18 19 20 21 22 23 24 25 26 27 28 29 30 31 32 33 34 35 36 37 38 39 40 41 42 43 44 45 46 47 48 49 50

958
ASUS43 KLOT 181207
RWRIL

ILLINOIS REGIONAL WEATHER ROUNDUP
NATIONAL WEATHER SERVICE CHICAGO/ROMEOVILLE IL
600 AM CST WED JAN 18 2017

NOTE: "FAIR" INDICATES FEW OR NO CLOUDS BELOW 12,000 FEET WITH NO
SIGNIFICANT WEATHER AND/OR OBSTRUCTIONS TO VISIBILITY.

* THESE STATIONS ARE NOT UNDER NWS QUALITY CONTROL. THEY ALSO MAY NOT
  REPORT WEATHER SUCH AS PRECIPITATION OR FOG.

ILZ001-002-007-009-015-016-024-181300-
NORTHWEST ILLINOIS

CITY           SKY/WX    TMP DP  RH WIND       PRES   REMARKS
MOLINE         CLOUDY    34  30  85 W9        30.12S WCI  27
6HR MIN TEMP:  34; 6HR MAX TEMP:  36;

STERLING*      CLOUDY    34  33  96 W13       30.12S WCI  25
SAVANNA*       CLOUDY    33  32  96 W9        30.12S FOG     WCI  26
$$

ILZ003-004-008-010-011-017-018-181300-
NORTH CENTRAL ILLINOIS

CITY           SKY/WX    TMP DP  RH WIND       PRES   REMARKS
ROCKFORD       DRIZZLE   33  31  92 W12       30.12S FOG     WCI  24
6HR MIN TEMP:  33; 6HR MAX TEMP:  35; 6HR PCP: TRACE;

FREEPORT*      CLOUDY    32  32  99 W7        30.12S FOG     WCI  26
ROCHELLE*      CLOUDY    32  32 100 W10       30.12R FOG     WCI  24
DE KALB*       CLOUDY    32  32  99 W12       30.11S FOG     WCI  23
$$

ILZ005-006-012>014-019>023-181300-
NORTHEAST ILLINOIS

CITY           SKY/WX    TMP DP  RH WIND       PRES   REMARKS
CHICAGO-OHARE  DRIZZLE   35  33  92 W10       30.09R FOG     WCI  27
6HR MIN TEMP:  34; 6HR MAX TEMP:  35; 6HR PCP: TRACE;

CHICAGO-MIDWAY CLOUDY    33  32  96 W10       30.10S FOG     WCI  25
6HR MIN TEMP:  33; 6HR MAX TEMP:  34;

AURORA         CLOUDY    34  31  88 W16       30.11R WCI  24
6HR MIN TEMP:  34; 6HR MAX TEMP:  35;

LANSING*       CLOUDY    34  34 100 W9        30.12R FOG     WCI  26
JOLIET*        CLOUDY    35  35  99 W6        30.13R FOG     WCI  30
WAUKEGAN       CLOUDY    35  33  92 W5        30.07S FOG     WCI  31
6HR MIN TEMP:  34; 6HR MAX TEMP:  35;

DUPAGE AIRPORT CLOUDY    34  31  88 W10       30.09S FOG     WCI  26
6HR MIN TEMP:  34; 6HR MAX TEMP:  35;

KANKAKEE*      CLOUDY    33  33  98 W12       30.14S WCI  25
WHEELING       CLOUDY    35  32  88 W8        30.10R WCI  29
6HR MIN TEMP:  35; 6HR MAX TEMP:  35;

MORRIS*        CLOUDY    33  32  95 W12       30.12S WCI  25
ROMEOVILLE*    CLOUDY    33  33 100 W10       30.12R FOG     WCI  25
NORTHERLY ISL    N/A     35  33  92 W8          N/A  WCI  29
$$

LMZ740>746-181300-
SOUTHERN LAKE MICHIGAN

STATION/POSITION SKY/WX   TEMP    WIND        PRES    VSBY  WAVE
                          AIR SEA DIR/SP/G                  HT/PER
                          (F)     (DEG/KT/KT) (MB)    (MI)  (FT/S)
HARRISON CRIB              36     280/ 17/ 20   N/A
BURNHAM HARBOR             35     270/  9/ 14   N/A
CALUMET HARBOR             35     250/  9/ 14 1018.8R
BURNS HARBOR               34     260/ 13/ 15 1020.0R
$$

ILZ025>027-034>036-040-047-049-050-058-095>099-181300-
WEST-CENTRAL ILLINOIS

CITY           SKY/WX    TMP DP  RH WIND       PRES   REMARKS
QUINCY         CLOUDY    34  31  88 W9        30.17R WCI  27
GALESBURG*     CLOUDY    32  31  94 W7        30.14S WCI  26
MACOMB*        CLOUDY    33  32  97 W5        30.17F WCI  28
JACKSONVILLE*  CLOUDY    33  30  89 W6        30.17S WCI  28
PITTSFIELD*    CLOUDY    35  32  88 W6        30.19R WCI  30
$$

ILZ028>032-037-038-041>044-048-051>054-059>061-181300-
CENTRAL ILLINOIS

CITY           SKY/WX    TMP DP  RH WIND       PRES   REMARKS
PONTIAC        CLOUDY    34  34 100 W14       30.15S FOG     WCI  25
BLOOMINGTON    CLOUDY    34  33  96 NW10      30.15S WCI  26
DECATUR        CLOUDY    36  35  96 W8        30.17S WCI  30
PEORIA         CLOUDY    36  34  92 W9        30.16R WCI  29
6HR MIN TEMP:  34; 6HR MAX TEMP:  36;

LACON*         CLOUDY    34  34  98 W8        30.14S WCI  28
LINCOLN*       CLOUDY    37  36  96 W5        30.17S WCI  33
SPRINGFIELD    CLOUDY    37  33  85 W6        30.17S WCI  32
6HR MIN TEMP:  37; 6HR MAX TEMP:  39;

TAYLORVILLE    CLOUDY    36  33  90 W9        30.19R WCI  29
6HR MIN TEMP:  36; 6HR MAX TEMP:  37;

$$

ILZ033-039-045-046-055>057-062-063-181300-
EAST-CENTRAL ILLINOIS

CITY           SKY/WX    TMP DP  RH WIND       PRES   REMARKS
CHAMPAIGN      CLOUDY    36  33  89 NW15      30.16S WCI  27
RANTOUL*       CLOUDY    36  35  95 NW12      30.15S WCI  28
MATTOON        CLOUDY    36  34  92 NW12      30.17R WCI  28
PARIS*         CLOUDY    37  35  95 NW13      30.17S WCI  28
$$

ILZ079-100>102-181300-
SOUTHWEST ILLINOIS

CITY           SKY/WX    TMP DP  RH WIND       PRES   REMARKS
ALTON          CLOUDY    36  32  85 W5        30.22R WCI  32
BELLEVILLE     CLOUDY    39  36  90 NW5       30.21R
CAHOKIA*       CLOUDY    39  32  76 SW5       30.22R
SPARTA*        CLOUDY    38  33  83 NW5       30.22S WCI  34
$$

ILZ064>066-069>071-074>076-080>082-084>086-088>090-092>094-181300-
SOUTH-CENTRAL ILLINOIS

CITY           SKY/WX    TMP DP  RH WIND       PRES   REMARKS
CARBONDALE     CLOUDY    39  37  92 NW5       30.21S
6HR MIN TEMP:  39; 6HR MAX TEMP:  42;

CAIRO*         CLOUDY    41  38  88 N5        30.23R
EFFINGHAM*     CLOUDY    37  37  99 W5        30.21R WCI  34
MARION         CLOUDY    41  39  93 N5        30.21S
MT. VERNON     CLOUDY    39  34  82 CALM      30.22R
CENTRALIA*     CLOUDY    39  35  86 NW3       30.20S
SALEM*         CLOUDY    39  35  84 W6        30.21R WCI  35
METROPOLIS*    CLOUDY    42  38  86 CALM      30.23R
$$

ILZ067-068-072-073-078-083-087-091-181300-
SOUTHEAST ILLINOIS

CITY           SKY/WX    TMP DP  RH WIND       PRES   REMARKS
LAWRENCEVILLE  CLOUDY    39  37  92 W7        30.21R WCI  34
FLORA*         CLOUDY    39  37  89 W7        30.22R WCI  34
FAIRFIELD*     CLOUDY    39  36  89 CALM      30.21R
HARRISBURG*    CLOUDY    40  37  87 NW3       30.22S
ROBINSON*      CLOUDY    37  35  92 NW7       30.20S WCI  32
CARMI*         CLOUDY    39  36  89 NW5       30.22R
$$

ABBREVIATIONS USED IN REMARKS
   TC - TEMPERATURE IN CELSIUS
  WCI - WIND CHILL INDEX
   HX - HEAT INDEX
  VSB - VISIBILITY
$$





USA.gov is the U.S. government's official web portal to all federal, state and local government web resources and services.